Weather observations for the past three days for
Albertus Airport
Imperial (Metric)
Date Time (cdt) Wind (mph) Vis. (mi.) Weather Sky Cond. Temperature (ºF) Relative Humidity Wind Chill (°F) Heat Index (°F) Pressure Precipitation (in)
Air Dwpt 6 hour altimeter (in) sea level (mb) 1 hr 3 hr 6 hr
Max. Min.
22 06:35 Calm 0.75 Overcast OVC003 65.1 61.9 89% 30.08 0.0
22 06:15 Calm 0.15 Overcast OVC003 65.3 61.9 89% 30.08 0.0
22 05:55 Calm 0.15 Overcast OVC003 65.3 62.1 89% 30.08 0.0
22 05:35 Calm 0.25 Overcast OVC003 65.8 62.6 89% 30.08 0.0
22 05:15 E 3 0.25 Overcast OVC003 66.2 63 89% 30.08 0.0
22 04:55 E 3 0.25 Overcast OVC003 66.4 63.1 89% 30.08 0.0
22 04:35 Calm 1.25 Overcast OVC003 66.4 63.1 89% 30.08 0.0
22 04:15 Calm 2.50 Overcast OVC003 66.4 63.1 89% 30.08 0.0
22 03:55 Calm 1.75 Overcast OVC003 65.7 62.6 90% 30.08 0.0
22 03:35 Calm 1.50 Mostly Cloudy BKN003 BKN075 66 62.8 89% 30.08 0.0
22 03:15 Calm 3.00 Mostly Cloudy BKN075 66.6 63.5 90% 30.09 0.0
22 02:55 Calm 5.00 Overcast BKN050 OVC075 67.1 63.7 89% 30.09 0.0
22 02:35 Calm 5.00 Overcast BKN050 OVC055 67.1 63.7 89% 30.09 0.0
22 02:15 Calm 7.00 Overcast OVC055 66.6 63.5 90% 30.09 0.0
22 01:55 Calm 7.00 Overcast OVC055 66.2 63 89% 30.1 0.0
22 01:35 Calm 7.00 Mostly Cloudy SCT055 BKN075 66.2 62.8 89% 30.1 0.0
22 01:15 Calm 10.00 Mostly Cloudy BKN075 66.4 63.1 89% 30.1 0.0
22 00:55 Calm 10.00 Partly Cloudy SCT065 67.5 64.4 77.9 66.6 90% 30.11 0.0
22 00:35 Calm 10.00 Partly Cloudy SCT060 68.2 64.9 89% 30.11 0.0
22 00:15 Calm 10.00 Mostly Cloudy BKN060 67.8 64.6 89% 30.11 0.0
21 23:55 Calm 10.00 Overcast OVC060 67.6 64.4 89% 30.12 0.0
21 23:35 Calm 10.00 Overcast OVC075 68.4 65.1 89% 30.12 0.0
21 23:15 Calm 10.00 Overcast OVC070 68 64.8 89% 30.12 0.0
21 22:55 Calm 10.00 Mostly Cloudy BKN070 67.3 64 89% 30.12 0.0
21 22:35 Calm 10.00 Fair CLR 66.6 63.3 89% 30.12 0.0
21 22:15 Calm 10.00 Fair CLR 68 64.8 89% 30.12 0.0
21 21:55 Calm 10.00 Fair CLR 68 64.8 89% 30.12 0.0
21 21:35 Calm 10.00 Fair CLR 68.5 65.3 89% 30.12 0.0
21 21:15 NE 5 10.00 Fair CLR 68.7 65.3 89% 30.12 0.0
21 20:55 NE 5 10.00 Fair CLR 69.1 65.8 89% 30.11 0.0
21 20:35 E 5 10.00 Fair CLR 70.7 66.2 86% 30.11 0.0
21 20:15 NE 5 10.00 Partly Cloudy SCT090 71.2 66.6 85% 30.11 0.0
21 19:55 Calm 10.00 Mostly Cloudy SCT044 BKN080 72.3 65.5 79% 30.1 0.0
21 19:35 E 7 10.00 Mostly Cloudy BKN044 BKN075 73.4 64.9 75% 30.1 0.0
21 19:15 Calm 10.00 Partly Cloudy SCT075 77 65.8 69% 79 30.1 0.0
21 18:55 Calm 10.00 Fair CLR 77.9 64.6 81.5 77.9 64% 80 30.1 0.0
21 18:35 S 5 10.00 Fair CLR 78.4 63.9 61% 80 30.09 0.0
21 18:15 SW 3 10.00 Fair CLR 79 61.7 56% 80 30.09 0.0
21 17:55 S 3 10.00 Fair CLR 79.2 60.8 53% 80 30.09 0.0
21 17:35 S 3 10.00 Fair CLR 80.4 62.2 54% 82 30.09 0.0
21 17:15 Calm 10.00 Fair CLR 80.8 60.4 50% 82 30.09 0.0
21 16:55 S 3 10.00 Partly Cloudy SCT047 80.6 60.4 50% 81 30.1 0.0
21 16:35 SW 3 10.00 Partly Cloudy SCT045 SCT050 81.3 61.5 51% 82 30.1 0.0
21 16:15 Calm 10.00 Fair CLR 81 60.8 50% 82 30.1 0.0
21 15:55 S 6 10.00 Partly Cloudy SCT050 81.3 61.9 52% 82 30.1 0.0
21 15:35 SE 3 10.00 Partly Cloudy SCT048 80.6 60.1 50% 81 30.11 0.0
21 15:15 SE 7 10.00 Partly Cloudy SCT046 81 61.2 51% 82 30.12 0.0
21 14:55 Calm 10.00 Mostly Cloudy SCT046 BKN090 81 60.3 49% 82 30.12 0.0
21 14:35 Calm 10.00 Mostly Cloudy BKN090 80.4 59.9 50% 81 30.13 0.0
21 14:15 E 5 10.00 Partly Cloudy SCT065 81.3 62.1 52% 82 30.13 0.0
21 13:55 Calm 10.00 Fair CLR 80.4 60.1 50% 81 30.14 0.0
21 13:35 S 3 10.00 Fair CLR 80.4 60.8 51% 81 30.14 0.0
21 13:15 Calm 10.00 Fair CLR 79.5 58.8 49% 80 30.14 0.0
21 12:55 Calm 10.00 Fair CLR 79.7 60.3 80.2 64.4 52% 81 30.14 0.0
21 12:35 Calm 10.00 Partly Cloudy SCT070 80.2 62.4 55% 82 30.14 0.0
21 12:15 Calm 10.00 Mostly Cloudy SCT036 BKN070 78.8 62.4 57% 80 30.15 0.0
21 11:55 Calm 10.00 Mostly Cloudy SCT034 BKN070 79.5 63.3 58% 81 30.15 0.0
21 11:35 E 3 10.00 Mostly Cloudy SCT032 BKN040 BKN070 78.8 64.4 61% 81 30.15 0.0
21 11:15 Calm 10.00 Partly Cloudy SCT028 78.1 64.4 63% 80 30.16 0.0
21 10:55 Calm 10.00 Fair CLR 76.8 64.6 66% 79 30.16 0.0
21 10:35 Calm 10.00 Fair CLR 75.4 65.3 71% 77 30.16 0.0
21 10:15 Calm 10.00 Fair CLR 75.2 66.4 74% 76 30.16 0.0
21 09:55 Calm 10.00 Fair CLR 74.3 66.9 78% 30.16 0.0
21 09:35 Calm 10.00 Fair CLR 73.4 66.2 78% 30.15 0.0
21 09:15 Calm 10.00 Fair CLR 72.3 65.8 80% 30.15 0.0
21 08:55 Calm 10.00 Fair CLR 71.2 67.6 88% 30.15 0.0
21 08:35 Calm 10.00 Fair CLR 69.8 66.4 89% 30.15 0.0
21 08:15 Calm 10.00 Fair CLR 68.4 65.1 89% 30.15 0.0
21 07:55 NW 3 10.00 Fair CLR 67.3 64.2 90% 30.14 0.0
21 07:35 Calm 10.00 Fair CLR 66.2 62.8 89% 30.15 0.0
21 07:15 Calm 10.00 Fair CLR 64.8 61.7 90% 30.15 0.0
21 06:55 Calm 10.00 Fair CLR 64.4 61 65.7 60.4 89% 30.15 0.0
21 06:35 Calm 10.00 Fair CLR 63.9 60.8 90% 30.15 0.0
21 06:15 Calm 10.00 Fair CLR 63.1 59.9 89% 30.15 0.0
21 05:55 Calm 10.00 Fair CLR 63.5 60.1 89% 30.15 0.0
21 05:35 Calm 10.00 Fair CLR 61.9 58.6 89% 30.15 0.0
21 05:15 Calm 10.00 Fair CLR 61.9 59 90% 30.15 0.0
21 04:55 Calm 10.00 Fair CLR 62.2 59 89% 30.15 0.0
21 04:35 SW 5 10.00 Fair CLR 61.5 58.3 89% 30.14 0.0
21 04:15 S 3 10.00 Fair CLR 61 57.9 90% 30.14 0.0
21 03:55 W 3 10.00 Partly Cloudy SCT070 62.2 59.2 90% 30.14 0.0
21 03:35 SW 3 10.00 Partly Cloudy SCT070 62.2 59 89% 30.14 0.0
21 03:15 Calm 10.00 Fair CLR 62.8 59.5 89% 30.14 0.0
21 02:55 Calm 10.00 Partly Cloudy SCT050 62.8 59.7 90% 30.14 0.0
21 02:35 SW 3 10.00 Mostly Cloudy BKN050 64.4 61 89% 30.14 0.0
21 02:15 Calm 10.00 Overcast OVC055 64.6 61.3 89% 30.15 0.0
21 01:55 Calm 10.00 Overcast BKN060 OVC075 65.3 61.9 89% 30.15 0.0
21 01:35 Calm 10.00 Overcast BKN060 OVC075 65.3 62.1 89% 30.15 0.0
21 01:15 Calm 10.00 Mostly Cloudy BKN060 BKN070 65.3 61.9 89% 30.15 0.0
21 00:55 Calm 10.00 Mostly Cloudy BKN060 65.7 62.6 74.5 64.8 90% 30.15 0.0
21 00:35 Calm 10.00 Mostly Cloudy SCT060 BKN070 66.2 62.8 89% 30.15 0.0
21 00:15 Calm 10.00 Fair CLR 65.7 62.6 90% 30.15 0.0
20 23:55 Calm 10.00 Fair CLR 65.7 62.6 90% 30.15 0.0
20 23:35 Calm 10.00 Fair CLR 66.2 62.8 89% 30.15 0.0
20 23:15 Calm 10.00 Fair CLR 65.3 62.1 89% 30.15 0.0
20 22:55 Calm 10.00 Fair CLR 65.3 62.1 89% 30.15 0.0
20 22:35 Calm 10.00 Fair CLR 66.2 62.4 88% 30.16 0.0
20 22:15 Calm 10.00 Fair CLR 65.7 62.2 89% 30.16 0.0
20 21:55 Calm 10.00 Fair CLR 64.9 61.7 89% 30.16 0.0
20 21:35 Calm 10.00 Fair CLR 66.2 62.1 87% 30.16 0.0
20 21:15 Calm 10.00 Fair CLR 66.9 61.9 84% 30.15 0.0
20 20:55 W 3 10.00 Fair CLR 67.6 61.9 82% 30.15 0.0
20 20:35 SW 3 10.00 Fair CLR 69.4 61.5 76% 30.14 0.0
20 20:15 W 3 10.00 Fair CLR 71.1 61 71% 30.14 0.0
20 19:55 Calm 10.00 Fair CLR 71.8 61.3 70% 30.13 0.0
20 19:35 SW 3 10.00 Fair CLR 72.5 61.9 69% 30.13 0.0
20 19:15 W 3 10.00 Fair CLR 73.8 61 64% 30.12 0.0
20 18:55 SW 5 10.00 Fair CLR 74.5 61 77.9 74.3 63% 30.12 0.0
20 18:35 SW 5 10.00 Fair CLR 75.2 59.7 59% 78 30.13 0.0
20 18:15 SW 6 10.00 Fair CLR 75.6 59.7 58% 78 30.13 0.0
20 17:55 SW 7 10.00 Fair CLR 76.1 60.3 58% 78 30.13 0.0
20 17:35 W 5 10.00 Fair CLR 75 60.6 61% 77 30.13 0.0
20 17:15 SW 6 10.00 Fair CLR 76.3 60.8 59% 78 30.14 0.0
20 16:55 SW 7 10.00 Fair CLR 75.4 62.2 64% 77 30.14 0.0
20 16:35 SW 7 10.00 Fair CLR 74.3 61.5 65% 30.15 0.0
20 16:15 SW 8 10.00 Partly Cloudy SCT048 74.8 62.4 65% 30.15 0.0
20 15:55 W 8 10.00 Mostly Cloudy SCT050 BKN075 75.2 61.2 62% 77 30.15 0.0
20 15:35 SW 9 10.00 Mostly Cloudy BKN075 75.6 61.3 61% 78 30.15 0.0
20 15:15 Calm 10.00 Mostly Cloudy SCT044 BKN050 76.5 58.3 53% 78 30.16 0.0
20 14:55 SW 7 10.00 Mostly Cloudy BKN044 76.3 59 55% 78 30.16 0.0
20 14:35 SW 5 10.00 Partly Cloudy SCT044 77.4 58.3 52% 79 30.16 0.0
20 14:15 N 5 10.00 Fair CLR 77 56.7 50% 79 30.16 0.0
20 13:55 Calm 10.00 Fair CLR 75.2 56.8 53% 78 30.16 0.0
20 13:35 Calm 10.00 Partly Cloudy SCT060 76.5 58.3 53% 78 30.16 0.0
20 13:15 N 3 10.00 Mostly Cloudy BKN060 75.9 58.3 54% 78 30.16 0.0
20 12:55 NW 5 10.00 Overcast SCT050 OVC060 74.7 58.6 75.6 61.9 58% 30.16 0.0
20 12:35 NW 5 10.00 Mostly Cloudy SCT039 SCT045 BKN060 74.3 57.7 56% 30.17 0.0
20 12:15 N 3 10.00 Mostly Cloudy SCT038 BKN060 74.5 57.6 56% 30.17 0.0
20 11:55 Calm 10.00 Overcast OVC060 74.8 59.4 59% 30.17 0.0
20 11:35 Calm 10.00 Overcast SCT039 SCT047 OVC060 73.8 58.3 59% 30.17 0.0
20 11:15 Calm 10.00 Mostly Cloudy SCT039 BKN047 BKN060 73.6 59.4 61% 30.18 0.0
20 10:55 Calm 10.00 Partly Cloudy SCT037 SCT045 73.4 57.4 57% 30.18 0.0
20 10:35 Calm 10.00 Partly Cloudy SCT037 74.7 59.2 59% 30.18 0.0
20 10:15 Calm 10.00 Fair CLR 73.6 59 60% 30.18 0.0
20 09:55 Calm 10.00 Fair CLR 73 59.5 63% 30.18 0.0
20 09:35 Calm 10.00 Fair CLR 71.1 59.9 68% 30.18 0.0
20 09:15 Calm 10.00 Fair CLR 69.8 61 74% 30.18 0.0
20 08:55 Calm 10.00 Fair CLR 69.4 61.5 76% 30.19 0.0
20 08:35 Calm 10.00 Fair CLR 68.9 60.8 76% 30.18 0.0
20 08:15 Calm 10.00 Fair CLR 67.6 61 79% 30.18 0.0
20 07:55 Calm 10.00 Fair CLR 66.6 60.3 80% 30.18 0.0
20 07:35 Calm 10.00 Fair CLR 64.4 59.2 83% 30.18 0.0
20 07:15 Calm 10.00 Fair CLR 62.8 59.5 89% 30.17 0.0
20 06:55 Calm 10.00 Fair CLR 61.5 58.5 61.5 56.8 90% 30.17 0.0
20 06:35 Calm 10.00 Fair CLR 59.2 56.3 90% 30.16 0.0
20 06:15 Calm 10.00 Fair CLR 59 55.9 90% 30.16 0.0
20 05:55 Calm 10.00 Fair CLR 57.6 54.5 90% 30.15 0.0
20 05:35 Calm 10.00 Fair CLR 58.6 55.6 90% 30.15 0.0
20 05:15 Calm 10.00 Fair CLR 58.1 55 90% 30.15 0.0
20 04:55 Calm 10.00 Fair CLR 57.2 54 89% 30.15 0.0
20 04:35 Calm 10.00 Fair CLR 58.1 55 90% 30.15 0.0
20 04:15 Calm 10.00 Partly Cloudy SCT060 57.9 54.9 90% 30.14 0.0
20 03:55 Calm 10.00 Partly Cloudy SCT060 57.2 54.1 90% 30.14 0.0
20 03:35 Calm 10.00 Fair CLR 57.7 54.7 90% 30.14 0.0
20 03:15 Calm 10.00 Fair CLR 57.9 54.7 89% 30.14 0.0
20 02:55 SE 3 10.00 Fair CLR 57.4 54.5 90% 30.14 0.0
20 02:35 Calm 10.00 Fair CLR 58.3 55.2 90% 30.14 0.0
20 02:15 Calm 10.00 Fair CLR 58.1 55 90% 30.14 0.0
20 01:55 Calm 10.00 Fair CLR 58.5 55.4 90% 30.15 0.0
20 01:35 Calm 10.00 Fair CLR 58.1 55 90% 30.16 0.0
20 01:15 Calm 10.00 Fair CLR 59.4 56.1 89% 30.16 0.0
20 00:55 Calm 10.00 Fair CLR 59.2 56.1 74.1 59.2 90% 30.16 0.0
20 00:35 Calm 10.00 Fair CLR 59.9 56.7 89% 30.16 0.0
20 00:15 Calm 10.00 Fair CLR 59.5 56.5 90% 30.16 0.0
19 23:55 Calm 10.00 Fair CLR 59.9 56.8 90% 30.16 0.0
19 23:35 Calm 10.00 Fair CLR 59.9 56.8 90% 30.16 0.0
19 23:15 Calm 10.00 Fair CLR 60.8 57.7 90% 30.16 0.0
19 22:55 S 5 10.00 Fair CLR 61.9 58.6 89% 30.15 0.0
19 22:35 SW 3 10.00 Fair CLR 62.6 59.4 89% 30.15 0.0
19 22:15 SW 3 10.00 Fair CLR 61.9 58.6 89% 30.16 0.0
19 21:55 Calm 10.00 Fair CLR 63.9 59.7 86% 30.15 0.0
19 21:35 Calm 10.00 Fair CLR 65.7 59.9 82% 30.15 0.0
19 21:15 SW 3 10.00 Fair CLR 65.8 60.6 83% 30.15 0.0
19 20:55 Calm 10.00 Fair CLR 66.2 62.1 87% 30.15 0.0
19 20:35 S 3 10.00 Fair CLR 66.6 62.8 88% 30.15 0.0
19 20:15 Calm 10.00 Fair CLR 68.7 63.3 83% 30.14 0.0
19 19:55 Calm 10.00 Fair CLR 70.5 60.4 71% 30.14 0.0
19 19:35 Calm 10.00 Fair CLR 72.7 59.7 64% 30.15 0.0
19 19:15 Calm 10.00 Fair CLR 73.4 58.6 60% 30.15 0.0
19 18:55 S 3 10.00 Fair CLR 74.3 57.7 76.8 73.6 56% 30.14 0.0
19 18:35 SW 5 10.00 Fair CLR 74.7 56.7 54% 30.15 0.0
19 18:15 W 3 10.00 Fair CLR 75.2 54.3 48% 78 30.15 0.0
19 17:55 SW 6 10.00 Fair CLR 75.7 56.1 51% 78 30.15 0.0
19 17:35 SW 6 10.00 Fair CLR 75.9 55.6 49% 78 30.15 0.0
19 17:15 SW 3 10.00 Fair CLR 76.1 52.7 44% 78 30.15 0.0
19 16:55 W 5 10.00 Fair CLR 76.3 54.3 47% 78 30.16 0.0
19 16:35 Calm 10.00 Fair CLR 76.1 54.9 48% 78 30.15 0.0
19 16:15 SW 5 10.00 Fair CLR 76.5 54.9 47% 78 30.16 0.0
19 15:55 SW 3 10.00 Fair CLR 75.6 53.2 46% 78 30.17 0.0
19 15:35 W 6 10.00 Partly Cloudy SCT060 76.1 54.5 47% 78 30.19 0.0
19 15:15 W 7 10.00 Overcast OVC060 76.5 55 48% 78 30.19 0.0
19 14:55 SW 3 10.00 Overcast OVC060 74.8 56.7 53% 30.19 0.0
19 14:35 W 5 10.00 Mostly Cloudy BKN060 74.7 55.2 51% 30.2 0.0
19 14:15 Calm 10.00 Overcast OVC060 76.1 53.4 45% 78 30.19 0.0
19 13:55 SW 5 10.00 Overcast OVC050 74.5 54.3 50% 30.2 0.0
19 13:35 W 3 10.00 Mostly Cloudy BKN050 73.9 54.7 51% 30.19 0.0
19 13:15 W 5 10.00 Overcast OVC050 74.5 54.9 51% 30.2 0.0
19 12:55 W 5 10.00 Mostly Cloudy BKN050 74.5 54.1 75.6 60.3 49% 30.2 0.0
19 12:35 W 3 10.00 Mostly Cloudy BKN050 75 53.2 47% 78 30.21 0.0
19 12:15 S 3 10.00 Partly Cloudy SCT048 74.8 50.5 43% 30.21 0.0
19 11:55 SW 5 10.00 Partly Cloudy SCT045 SCT055 74.8 55 50% 30.21 0.0
19 11:35 W 5 10.00 Partly Cloudy SCT045 SCT055 73.9 53.8 49% 30.22 0.0
19 11:15 W 3 10.00 Partly Cloudy SCT043 73.9 54.1 50% 30.22 0.0
19 10:55 W 3 10.00 Partly Cloudy SCT043 73.4 55.2 53% 30.23 0.0
19 10:35 W 5 10.00 Fair CLR 72.7 56.5 57% 30.23 0.0
19 10:15 W 6 10.00 Fair CLR 72.3 57 59% 30.23 0.0
19 09:55 Calm 10.00 Fair CLR 70.9 58.3 65% 30.23 0.0
19 09:35 W 3 10.00 Fair CLR 70.2 59.2 68% 30.23 0.0
19 09:15 Calm 10.00 Fair CLR 69.1 59.5 72% 30.24 0.0
19 08:55 W 3 10.00 Fair CLR 68.2 59.7 75% 30.24 0.0
19 08:35 W 5 10.00 Fair CLR 66.9 59.2 76% 30.25 0.0
19 08:15 W 5 10.00 Fair CLR 66.2 58.3 76% 30.25 0.0
19 07:55 Calm 10.00 Fair CLR 64.4 59.2 83% 30.25 0.0
19 07:35 Calm 10.00 Fair CLR 62.6 58.3 86% 30.25 0.0
19 07:15 Calm 10.00 Fair CLR 61 57.6 89% 30.24 0.0
19 06:55 Calm 10.00 Fair CLR 60.3 56.3 60.8 54.5 87% 30.24 0.0
Date Time (cdt) Wind (mph) Vis. (mi.) Weather Sky Cond. Air Dwpt Max. Min. Relative Humidity Wind Chill (°F) Heat Index (°F) altimeter (in) sea level (mb) 1 hr 3 hr 6 hr
6 hour
Temperature (ºF) Pressure Precipitation (in)